Weather History for Norfolk, NE

Change the Weather History Date:

Tuesday, February 19, 2013

  Actual Average Record
Temperature  
Mean Temperature 14 °F 28 °F  
Max Temperature 22 °F 38 °F 72 °F (1930)
Min Temperature 5 °F 18 °F -25 °F (1936)
Degree Days  
Heating Degree Days 51 37  
Month to date heating degree days 640 750  
Since 1 July heating degree days 4522 4772  
Cooling Degree Days 0 0  
Month to date cooling degree days 0 0  
Year to date cooling degree days 0 0  
Moisture  
Dew Point 0 °F    
Average Humidity 56    
Maximum Humidity 76    
Minimum Humidity 36    
Precipitation  
Precipitation T in 0.02 in 0.64 in (1971)
Month to date precipitation 0.10 0.48  
Year to date precipitation 0.34 1.07  
Snow  
Snow T in 0.20 in - ()
Month to date snowfall 0.7 3.9  
Since 1 July snowfall 8.5 21.2  
Snow Depth T in    
Sea Level Pressure  
Sea Level Pressure 30.33 in    
Wind  
Wind Speed 16 mph (NNW)    
Max Wind Speed 30 mph    
Max Gust Speed 36 mph    
Visibility 10 miles    
Events Snow    
T = Trace of Precipitation, MM = Missing Value Source: NWS Daily Summary

Daily Weather History Graph

Daily Weather History Graph

Search for Another Location

Airport:

Trip Planner

Search our weather history database for the weather conditions in past years. The results will help you decide how hot, cold, wet, or windy it might be!

Date:

Astronomy

Feb. 19, 2013 Rise Set
Actual Time 7:19 AM CST 6:08 PM CST
Civil Twilight 6:51 AM CST 6:36 PM CST
Nautical Twilight 6:18 AM CST 7:09 PM CST
Astronomical Twilight 5:46 AM CST 7:41 PM CST
Moon 12:37 PM CST (2/19) 2:55 AM CST (2/19)
Length of Visible Light 11h 45m
Length of Day
10h 48m
Waxing Gibbous, 67% of the Moon is Illuminated
Feb 19
Waxing Gibbous
Feb 25
Full
Mar 4
Last Quarter
Mar 11
New
Mar 19
First Quarter

Hourly Weather History & Observations

Time (CST) Temp. Windchill Dew Point Humidity Pressure Visibility Wind Dir Wind Speed Gust Speed Precip Events Conditions
1:27 AM 12.2 °F -5.8 °F 6.8 °F 79% 30.11 in 10.0 mi NNW 19.6 mph 25.3 mph N/A   Mostly Cloudy
1:56 AM 12.9 °F -3.9 °F 6.1 °F 74% 30.20 in 10.0 mi NNW 17.3 mph 25.3 mph N/A   Scattered Clouds
2:52 AM 10.4 °F -9.1 °F 3.2 °F 73% 30.14 in 8.0 mi NW 21.9 mph 28.8 mph 0.00 in Snow Light Snow
2:56 AM 10.9 °F -8.3 °F 3.9 °F 73% 30.22 in 9.0 mi NW 21.9 mph 28.8 mph 0.00 in   Mostly Cloudy
3:27 AM 10.4 °F -8.6 °F 3.2 °F 73% 30.15 in 6.0 mi NW 20.7 mph 26.5 mph 0.00 in Snow Light Snow
3:49 AM 10.4 °F -9.1 °F 3.2 °F 73% 30.14 in 10.0 mi NW 21.9 mph 29.9 mph 0.00 in   Scattered Clouds
3:56 AM 10.0 °F -10.0 °F 3.0 °F 73% 30.23 in 10.0 mi NW 23.0 mph - 0.00 in   Partly Cloudy
4:56 AM 9.0 °F -12.2 °F 1.0 °F 70% 30.24 in 10.0 mi NW 25.3 mph 35.7 mph N/A   Clear
5:56 AM 7.0 °F -12.6 °F -2.0 °F 67% 30.29 in 10.0 mi NW 19.6 mph 33.4 mph N/A   Clear
7:56 AM 6.1 °F -13.3 °F -2.0 °F 69% 30.35 in 10.0 mi NNW 18.4 mph 27.6 mph N/A   Clear
8:56 AM 9.0 °F -11.0 °F -0.9 °F 64% 30.38 in 10.0 mi NNW 21.9 mph - N/A   Clear
9:56 AM 12.0 °F -6.0 °F -0.9 °F 56% 30.38 in 10.0 mi NNW 19.6 mph - N/A   Clear
10:56 AM 14.0 °F -2.5 °F -0.0 °F 54% 30.39 in 10.0 mi NW 17.3 mph - N/A   Clear
11:56 AM 17.1 °F -0.6 °F -0.0 °F 47% 30.40 in 10.0 mi NNW 23.0 mph 27.6 mph N/A   Clear
12:56 PM 19.9 °F 4.8 °F -0.0 °F 42% 30.39 in 10.0 mi NNW 18.4 mph - N/A   Clear
1:56 PM 21.0 °F 6.2 °F -2.0 °F 36% 30.38 in 10.0 mi North 18.4 mph 25.3 mph N/A   Clear
2:56 PM 21.9 °F 9.2 °F -2.0 °F 35% 30.38 in 10.0 mi NNW 13.8 mph - N/A   Clear
3:56 PM 21.9 °F 8.2 °F -2.0 °F 35% 30.37 in 10.0 mi North 16.1 mph - N/A   Clear
4:56 PM 19.9 °F 6.7 °F -2.9 °F 37% 30.37 in 10.0 mi North 13.8 mph - N/A   Clear
6:56 PM 14.0 °F 1.2 °F -0.0 °F 54% 30.38 in 10.0 mi North 10.4 mph - N/A   Clear
7:56 PM 10.9 °F -1.8 °F -0.0 °F 61% 30.40 in 10.0 mi North 9.2 mph - N/A   Clear
8:56 PM 10.0 °F -1.9 °F -0.0 °F 64% 30.40 in 10.0 mi North 8.1 mph - N/A   Clear
9:56 PM 8.1 °F -2.0 °F -0.0 °F 70% 30.42 in 10.0 mi North 5.8 mph - N/A   Clear
10:56 PM 6.1 °F -2.8 °F -0.9 °F 73% 30.45 in 10.0 mi NNW 4.6 mph - N/A   Clear
11:56 PM 6.1 °F -2.8 °F -0.0 °F 76% 30.45 in 10.0 mi North 4.6 mph - N/A   Clear